Meridian, MS

4:23 AM CST on December 09, 2016 (GMT -0600)
Meridian Naval Air Station

Weather History for KNMM - March, 2013

Change the Weather History Date:

Sunday, March 24, 2013

  Actual Average Record
Temperature  
Mean Temperature 52 °F -  
Max Temperature 60 °F 69 °F 84 °F (2007)
Min Temperature 42 °F 46 °F 34 °F (2008)
Degree Days  
Heating Degree Days 14    
Growing Degree Days 2 (Base 50)    
Moisture  
Dew Point 48 °F    
Average Humidity 84    
Maximum Humidity 100    
Minimum Humidity 45    
Precipitation  
Precipitation 0.18 in - - ()
Sea Level Pressure  
Sea Level Pressure 29.70 in    
Wind  
Wind Speed 9 mph (WNW)    
Max Wind Speed 30 mph    
Max Gust Speed 39 mph    
Visibility 6 miles    
Events Fog , Rain , Thunderstorm    
Averages and records for this station are not official NWS values.
T = Trace of Precipitation, MM = Missing Value Source: NWS Daily Summary

Daily Weather History Graph

Daily Weather History Graph

Search for Another Location

Airport or City:

Trip Planner

Search our weather history database for the weather conditions in past years. The results will help you decide how hot, cold, wet, or windy it might be!

Date:

Astronomy

Mar. 24, 2013 Rise Set
Actual Time 6:52 AM CDT 7:08 PM CDT
Civil Twilight 6:27 AM CDT 7:33 PM CDT
Nautical Twilight 5:59 AM CDT 8:02 PM CDT
Astronomical Twilight 5:30 AM CDT 8:31 PM CDT
Moon 4:43 PM CDT (3/24) 4:54 AM CDT (3/24)
Length of Visible Light 13h 05m
Length of Day
12h 16m
Waxing Gibbous, 92% of the Moon is Illuminated
Mar 24
Waxing Gibbous
Mar 27
Full
Apr 2
Last Quarter
Apr 10
New
Apr 18
First Quarter

Hourly Weather History & Observations

Time (CDT) Temp. Windchill Dew Point Humidity Pressure Visibility Wind Dir Wind Speed Gust Speed Precip Events Conditions
12:56 AM 57.0 °F - 55.0 °F 93% 29.64 in 6.0 mi NE 3.5 mph - 0.00 in Rain Light Rain
1:22 AM 57.2 °F - 55.4 °F 94% 29.63 in 2.5 mi NNW 10.4 mph - 0.01 in Rain Rain
1:33 AM 57.2 °F - 55.4 °F 94% 29.66 in 4.0 mi NNW 10.4 mph - 0.02 in   Overcast
1:48 AM 57.2 °F - 55.4 °F 94% 29.69 in 2.5 mi NW 17.3 mph 27.6 mph 0.08 in Rain , Thunderstorm Heavy Thunderstorms and Rain
1:56 AM 55.9 °F - 54.0 °F 93% 29.70 in 3.0 mi North 16.1 mph 23.0 mph 0.12 in Rain , Thunderstorm Heavy Thunderstorms and Rain
2:12 AM 55.4 °F - 53.6 °F 94% 29.63 in 6.0 mi NNE 10.4 mph - 0.04 in Rain , Thunderstorm Light Thunderstorms and Rain
2:56 AM 55.9 °F - 54.0 °F 93% 29.68 in 10.0 mi SSE 4.6 mph - 0.05 in Thunderstorm Thunderstorm
3:03 AM 55.4 °F - 53.6 °F 94% 29.63 in 10.0 mi East 9.2 mph - N/A Thunderstorm Thunderstorm
3:16 AM 55.4 °F - 53.6 °F 94% 29.62 in 10.0 mi Variable 4.6 mph - N/A   Mostly Cloudy
3:56 AM 55.9 °F - 53.1 °F 90% 29.63 in 10.0 mi East 6.9 mph - 0.00 in   Mostly Cloudy
4:56 AM 53.1 °F - 52.0 °F 96% 29.64 in 10.0 mi West 3.5 mph - N/A   Mostly Cloudy
5:21 AM 53.6 °F - 51.8 °F 94% 29.60 in 1.5 mi Calm Calm - N/A   Partly Cloudy
5:25 AM 51.8 °F - 51.8 °F 100% 29.61 in 0.8 mi Calm Calm - N/A   Partly Cloudy
5:30 AM 51.8 °F - 51.8 °F 100% 29.60 in 1.2 mi Calm Calm - N/A   Clear
5:38 AM 51.8 °F - 51.8 °F 100% 29.61 in 1.0 mi SW 3.5 mph - N/A   Mist
5:45 AM 51.8 °F - 51.8 °F 100% 29.61 in 2.0 mi Calm Calm - N/A   Clear
5:53 AM 51.8 °F - 51.8 °F 100% 29.61 in 4.0 mi Calm Calm - N/A   Clear
5:56 AM 51.1 °F - 50.0 °F 96% 29.64 in 2.0 mi Calm Calm - N/A   Clear
5:59 AM 51.8 °F - 50.0 °F 94% 29.61 in 1.5 mi WSW 4.6 mph - N/A   Partly Cloudy
6:23 AM 51.8 °F - 48.2 °F 88% 29.62 in 1.8 mi Calm Calm - N/A   Clear
6:30 AM 50.0 °F - 48.2 °F 94% 29.62 in 1.0 mi NW 3.5 mph - N/A   Mist
6:33 AM 50.0 °F - 48.2 °F 94% 29.62 in 0.5 mi WNW 4.6 mph - N/A Fog Fog
6:56 AM 50.0 °F - 48.9 °F 96% 29.66 in 0.2 mi WNW 3.5 mph - N/A Fog Fog
7:31 AM 50.0 °F - 48.2 °F 94% 29.63 in 0.2 mi Calm Calm - N/A Fog Fog
7:44 AM 51.8 °F - 50.0 °F 94% 29.64 in 0.5 mi NNW 3.5 mph - N/A Fog Fog
7:56 AM 52.0 °F - 50.0 °F 93% 29.67 in 0.2 mi NNW 3.5 mph - N/A Fog Fog
8:08 AM 51.8 °F - 51.8 °F 100% 29.64 in 0.5 mi NW 5.8 mph - N/A Fog Fog
8:15 AM 53.6 °F - 51.8 °F 94% 29.64 in 1.0 mi NW 8.1 mph - N/A   Mist
8:18 AM 53.6 °F - 51.8 °F 94% 29.65 in 3.0 mi WNW 8.1 mph - N/A   Mostly Cloudy
8:41 AM 55.4 °F - 53.6 °F 94% 29.67 in 10.0 mi West 10.4 mph - N/A   Mostly Cloudy
8:49 AM 55.4 °F - 53.6 °F 94% 29.67 in 10.0 mi WNW 9.2 mph - N/A   Mostly Cloudy
8:56 AM 55.0 °F - 54.0 °F 96% 29.70 in 10.0 mi West 8.1 mph - N/A   Mostly Cloudy
9:56 AM 55.9 °F - 53.1 °F 90% 29.72 in 10.0 mi West 8.1 mph - N/A   Overcast
10:54 AM 59.0 °F - 53.6 °F 82% 29.68 in 10.0 mi WSW 8.1 mph - N/A   Overcast
10:56 AM 59.0 °F - 54.0 °F 83% 29.70 in 10.0 mi West 6.9 mph - N/A   Overcast
11:56 AM 59.0 °F - 54.0 °F 83% 29.71 in 10.0 mi West 13.8 mph 20.7 mph N/A   Overcast
12:09 PM 59.0 °F - 53.6 °F 82% 29.68 in 10.0 mi West 13.8 mph 18.4 mph N/A   Overcast
12:51 PM 59.0 °F - 51.8 °F 77% 29.69 in 10.0 mi West 17.3 mph 24.2 mph N/A   Overcast
12:56 PM 57.9 °F - 52.0 °F 81% 29.72 in 10.0 mi West 17.3 mph 27.6 mph N/A   Overcast
1:16 PM 57.2 °F - 51.8 °F 82% 29.69 in 10.0 mi West 19.6 mph 33.4 mph N/A   Overcast
1:56 PM 53.1 °F - 50.0 °F 89% 29.75 in 3.0 mi WNW 20.7 mph 28.8 mph 0.01 in Rain Light Rain
2:05 PM 53.6 °F - 50.0 °F 88% 29.72 in 3.0 mi West 24.2 mph 31.1 mph 0.00 in Rain Light Rain
2:29 PM 53.6 °F - 46.4 °F 77% 29.72 in 10.0 mi West 16.1 mph 26.5 mph 0.00 in   Overcast
2:35 PM 53.6 °F - 48.2 °F 82% 29.71 in 10.0 mi West 10.4 mph 23.0 mph 0.00 in   Mostly Cloudy
2:56 PM 55.0 °F - 46.0 °F 72% 29.74 in 10.0 mi West 15.0 mph 23.0 mph 0.00 in   Mostly Cloudy
3:17 PM 57.2 °F - 44.6 °F 63% 29.70 in 10.0 mi West 18.4 mph 26.5 mph N/A   Scattered Clouds
3:56 PM 59.0 °F - 39.0 °F 48% 29.75 in 10.0 mi West 26.5 mph 35.7 mph N/A   Overcast
4:04 PM 57.2 °F - 37.4 °F 48% 29.72 in 10.0 mi West 19.6 mph 38.0 mph N/A   Scattered Clouds
4:56 PM 55.9 °F - 35.1 °F 45% 29.78 in 10.0 mi WNW 28.8 mph 39.1 mph N/A   Scattered Clouds
5:56 PM 51.1 °F - 33.1 °F 50% 29.85 in 10.0 mi WNW 29.9 mph 38.0 mph N/A   Mostly Cloudy
6:56 PM 46.9 °F - 30.9 °F 54% 29.89 in 10.0 mi WNW 19.6 mph 28.8 mph N/A   Overcast
7:56 PM 46.0 °F 39.3 °F 30.9 °F 56% 29.91 in 10.0 mi WNW 16.1 mph - N/A   Overcast
8:56 PM 45.0 °F 36.9 °F 28.9 °F 53% 29.94 in 10.0 mi NW 20.7 mph 31.1 mph N/A   Mostly Cloudy
9:56 PM 44.1 °F 37.4 °F 28.9 °F 55% 29.96 in 10.0 mi NW 13.8 mph 25.3 mph N/A   Overcast
10:56 PM 44.1 °F 37.4 °F 28.9 °F 55% 29.98 in 10.0 mi NW 13.8 mph 26.5 mph N/A   Overcast
11:56 PM 42.1 °F 34.5 °F 25.0 °F 51% 30.00 in 10.0 mi NW 15.0 mph 29.9 mph N/A   Overcast